Time,TemperatureF,DewpointF,PressureIn,WindDirection,WindDirectionDegrees,WindSpeedMPH,WindSpeedGustMPH,Humidity,HourlyPrecipIn,Conditions,Clouds,dailyrainin,SoftwareType,DateUTC
2013-03-16 00:06:00,39.6,13.0,29.72,WSW,250,0.0,0.0,34,0.00,,,0.00,weatherlink.com 1.10,2013-03-16 06:06:00,
2013-03-16 00:21:00,39.3,14.0,29.72,WSW,250,0.0,0.0,35,0.00,,,0.00,weatherlink.com 1.10,2013-03-16 06:21:00,
2013-03-16 00:36:00,40.5,14.0,29.72,WSW,250,0.0,1.0,34,0.00,,,0.00,weatherlink.com 1.10,2013-03-16 06:36:00,
2013-03-16 00:52:00,40.7,15.0,29.71,SSW,198,0.0,4.0,35,0.00,,,0.00,weatherlink.com 1.10,2013-03-16 06:52:00,
2013-03-16 01:07:00,40.1,15.0,29.71,SSW,198,0.0,1.0,36,0.00,,,0.00,weatherlink.com 1.10,2013-03-16 07:07:00,
2013-03-16 01:22:00,40.5,16.0,29.70,SSW,198,0.0,1.0,37,0.00,,,0.00,weatherlink.com 1.10,2013-03-16 07:22:00,
2013-03-16 01:37:00,40.7,15.0,29.70,SSW,198,1.0,2.0,36,0.00,,,0.00,weatherlink.com 1.10,2013-03-16 07:37:00,
2013-03-16 01:52:00,39.9,16.0,29.70,South,177,0.0,5.0,38,0.00,,,0.00,weatherlink.com 1.10,2013-03-16 07:52:00,
2013-03-16 02:07:00,40.1,16.0,29.69,SSW,199,0.0,2.0,38,0.00,,,0.00,weatherlink.com 1.10,2013-03-16 08:07:00,
2013-03-16 02:22:00,40.0,15.0,29.69,SSW,199,0.0,1.0,37,0.00,,,0.00,weatherlink.com 1.10,2013-03-16 08:22:00,
2013-03-16 02:37:00,40.4,16.0,29.68,SSW,199,0.0,3.0,37,0.00,,,0.00,weatherlink.com 1.10,2013-03-16 08:37:00,
2013-03-16 02:53:00,40.4,16.0,29.68,SSW,199,0.0,2.0,37,0.00,,,0.00,weatherlink.com 1.10,2013-03-16 08:53:00,
2013-03-16 03:07:00,40.2,16.0,29.67,SSW,199,1.0,2.0,37,0.00,,,0.00,weatherlink.com 1.10,2013-03-16 09:07:00,
2013-03-16 03:22:00,40.0,16.0,29.67,SSW,199,0.0,2.0,38,0.00,,,0.00,weatherlink.com 1.10,2013-03-16 09:22:00,
2013-03-16 03:37:00,39.9,17.0,29.66,SSW,204,0.0,3.0,39,0.00,,,0.00,weatherlink.com 1.10,2013-03-16 09:37:00,
2013-03-16 03:52:00,38.8,16.0,29.65,SSW,204,0.0,2.0,40,0.00,,,0.00,weatherlink.com 1.10,2013-03-16 09:52:00,
2013-03-16 04:07:00,36.6,16.0,29.65,SSW,204,0.0,2.0,44,0.00,,,0.00,weatherlink.com 1.10,2013-03-16 10:07:00,
2013-03-16 04:22:00,33.8,17.0,29.66,SSW,213,1.0,2.0,51,0.00,,,0.00,weatherlink.com 1.10,2013-03-16 10:22:00,
2013-03-16 04:37:00,31.0,17.0,29.67,WNW,297,0.0,2.0,57,0.00,,,0.00,weatherlink.com 1.10,2013-03-16 10:37:00,
2013-03-16 04:52:00,29.0,18.0,29.68,WNW,295,0.0,4.0,64,0.00,,,0.00,weatherlink.com 1.10,2013-03-16 10:52:00,
2013-03-16 05:08:00,28.1,17.0,29.68,WNW,297,1.0,2.0,63,0.00,,,0.00,weatherlink.com 1.10,2013-03-16 11:08:00,
2013-03-16 05:23:00,30.1,17.0,29.68,WNW,294,1.0,2.0,58,0.00,,,0.00,weatherlink.com 1.10,2013-03-16 11:23:00,
2013-03-16 05:40:00,30.4,17.0,29.68,WNW,294,0.0,1.0,58,0.00,,,0.00,weatherlink.com 1.10,2013-03-16 11:40:00,
2013-03-16 05:53:00,30.9,18.0,29.68,WNW,294,0.0,1.0,60,0.00,,,0.00,weatherlink.com 1.10,2013-03-16 11:53:00,
2013-03-16 06:08:00,31.7,19.0,29.68,WNW,294,0.0,1.0,59,0.00,,,0.00,weatherlink.com 1.10,2013-03-16 12:08:00,
2013-03-16 06:23:00,32.0,19.0,29.69,WNW,294,0.0,0.0,59,0.00,,,0.00,weatherlink.com 1.10,2013-03-16 12:23:00,
2013-03-16 06:38:00,32.6,20.0,29.68,WNW,294,0.0,0.0,59,0.00,,,0.00,weatherlink.com 1.10,2013-03-16 12:38:00,
2013-03-16 06:53:00,32.7,21.0,29.67,WNW,294,0.0,0.0,62,0.00,,,0.00,weatherlink.com 1.10,2013-03-16 12:53:00,
2013-03-16 07:08:00,32.8,21.0,29.67,WNW,294,0.0,0.0,62,0.00,,,0.00,weatherlink.com 1.10,2013-03-16 13:08:00,
2013-03-16 07:23:00,31.8,21.0,29.68,SSE,148,2.0,8.0,64,0.00,,,0.00,weatherlink.com 1.10,2013-03-16 13:23:00,
2013-03-16 07:38:00,31.5,22.0,29.68,SE,130,1.0,4.0,67,0.00,,,0.00,weatherlink.com 1.10,2013-03-16 13:38:00,
2013-03-16 07:53:00,31.9,22.0,29.68,SE,139,0.0,4.0,67,0.00,,,0.00,weatherlink.com 1.10,2013-03-16 13:53:00,
2013-03-16 08:08:00,32.5,23.0,29.69,SE,139,0.0,1.0,67,0.00,,,0.00,weatherlink.com 1.10,2013-03-16 14:08:00,
2013-03-16 08:23:00,33.0,23.0,29.69,SE,139,0.0,1.0,66,0.00,,,0.00,weatherlink.com 1.10,2013-03-16 14:23:00,
2013-03-16 08:38:00,33.9,23.0,29.69,SE,138,0.0,2.0,65,0.00,,,0.00,weatherlink.com 1.10,2013-03-16 14:38:00,
2013-03-16 08:53:00,34.4,25.0,29.70,ENE,66,2.0,4.0,68,0.00,,,0.00,weatherlink.com 1.10,2013-03-16 14:53:00,
2013-03-16 09:08:00,33.3,25.0,29.69,ENE,75,1.0,8.0,72,0.00,,,0.00,weatherlink.com 1.10,2013-03-16 15:08:00,
2013-03-16 09:25:00,33.2,26.0,29.69,ESE,109,0.0,5.0,76,0.00,,,0.00,weatherlink.com 1.10,2013-03-16 15:25:00,
2013-03-16 09:38:00,33.0,27.0,29.69,ESE,108,0.0,3.0,78,0.00,,,0.00,weatherlink.com 1.10,2013-03-16 15:38:00,
2013-03-16 09:53:00,32.5,27.0,29.69,ESE,114,2.0,4.0,80,0.00,,,0.00,weatherlink.com 1.10,2013-03-16 15:53:00,
2013-03-16 10:08:00,32.6,28.0,29.69,ESE,114,2.0,4.0,83,0.00,,,0.00,weatherlink.com 1.10,2013-03-16 16:08:00,
2013-03-16 10:23:00,32.7,28.0,29.69,ESE,110,0.0,4.0,83,0.00,,,0.00,weatherlink.com 1.10,2013-03-16 16:23:00,
2013-03-16 10:38:00,32.8,28.0,29.69,SE,130,0.0,3.0,83,0.01,,,0.01,weatherlink.com 1.10,2013-03-16 16:38:00,
2013-03-16 10:53:00,32.6,28.0,29.69,SE,131,0.0,1.0,84,0.01,,,0.01,weatherlink.com 1.10,2013-03-16 16:53:00,
2013-03-16 11:09:00,32.5,29.0,29.69,SE,129,2.0,3.0,85,0.01,,,0.01,weatherlink.com 1.10,2013-03-16 17:09:00,
2013-03-16 11:24:00,32.5,29.0,29.68,ESE,118,2.0,8.0,88,0.01,,,0.01,weatherlink.com 1.10,2013-03-16 17:24:00,
2013-03-16 11:39:00,32.7,30.0,29.68,East,96,0.0,5.0,89,0.01,,,0.02,weatherlink.com 1.10,2013-03-16 17:39:00,
2013-03-16 11:54:00,32.6,30.0,29.67,ESE,119,0.0,10.0,88,0.02,,,0.03,weatherlink.com 1.10,2013-03-16 17:54:00,
2013-03-16 12:08:00,33.4,31.0,29.67,ESE,115,3.0,7.0,89,0.02,,,0.03,weatherlink.com 1.10,2013-03-16 18:08:00,
2013-03-16 12:24:00,34.1,31.0,29.67,SE,146,5.0,8.0,87,0.02,,,0.03,weatherlink.com 1.10,2013-03-16 18:24:00,
2013-03-16 12:39:00,35.5,31.0,29.66,SSW,193,0.0,5.0,85,0.01,,,0.03,weatherlink.com 1.10,2013-03-16 18:39:00,
2013-03-16 12:54:00,36.6,32.0,29.66,SE,143,0.0,8.0,82,0.00,,,0.03,weatherlink.com 1.10,2013-03-16 18:54:00,
2013-03-16 13:11:00,37.8,31.0,29.65,ESE,106,0.0,7.0,76,0.00,,,0.03,weatherlink.com 1.10,2013-03-16 19:11:00,
2013-03-16 13:24:00,37.8,31.0,29.64,South,184,0.0,6.0,75,0.00,,,0.03,weatherlink.com 1.10,2013-03-16 19:24:00,
2013-03-16 13:39:00,38.5,30.0,29.64,SSW,198,2.0,8.0,72,0.00,,,0.03,weatherlink.com 1.10,2013-03-16 19:39:00,
2013-03-16 13:54:00,39.4,30.0,29.63,SW,226,0.0,4.0,70,0.00,,,0.03,weatherlink.com 1.10,2013-03-16 19:54:00,
2013-03-16 14:09:00,40.5,30.0,29.63,South,183,6.0,11.0,66,0.00,,,0.03,weatherlink.com 1.10,2013-03-16 20:09:00,
2013-03-16 14:24:00,42.2,31.0,29.62,South,183,0.0,6.0,64,0.00,,,0.03,weatherlink.com 1.10,2013-03-16 20:24:00,
2013-03-16 14:39:00,42.6,29.0,29.62,SW,234,0.0,7.0,59,0.00,,,0.03,weatherlink.com 1.10,2013-03-16 20:39:00,
2013-03-16 14:55:00,43.0,29.0,29.62,West,273,2.0,10.0,59,0.00,,,0.03,weatherlink.com 1.10,2013-03-16 20:55:00,
2013-03-16 15:10:00,40.4,29.0,29.62,WSW,250,1.0,5.0,64,0.00,,,0.03,weatherlink.com 1.10,2013-03-16 21:10:00,
2013-03-16 15:25:00,38.6,30.0,29.62,SW,220,1.0,8.0,70,0.00,,,0.03,weatherlink.com 1.10,2013-03-16 21:25:00,
2013-03-16 15:40:00,37.4,30.0,29.61,SSW,200,0.0,9.0,75,0.00,,,0.03,weatherlink.com 1.10,2013-03-16 21:40:00,
2013-03-16 15:55:00,38.1,30.0,29.60,SSW,192,5.0,13.0,73,0.00,,,0.03,weatherlink.com 1.10,2013-03-16 21:55:00,
2013-03-16 16:09:00,38.0,30.0,29.60,South,170,17.0,17.0,74,0.00,,,0.03,weatherlink.com 1.10,2013-03-16 22:09:00,
2013-03-16 16:24:00,38.7,30.0,29.61,WSW,242,3.0,9.0,71,0.00,,,0.03,weatherlink.com 1.10,2013-03-16 22:24:00,
2013-03-16 16:39:00,39.4,30.0,29.61,SSW,203,0.0,13.0,68,0.00,,,0.03,weatherlink.com 1.10,2013-03-16 22:39:00,
2013-03-16 16:54:00,39.7,29.0,29.62,South,176,0.0,4.0,66,0.00,,,0.03,weatherlink.com 1.10,2013-03-16 22:54:00,
2013-03-16 17:10:00,40.3,28.0,29.62,SSW,204,0.0,7.0,63,0.00,,,0.03,weatherlink.com 1.10,2013-03-16 23:10:00,
2013-03-16 17:25:00,36.9,27.0,29.64,West,274,5.0,19.0,68,0.00,,,0.03,weatherlink.com 1.10,2013-03-16 23:25:00,
2013-03-16 17:40:00,34.5,26.0,29.64,NW,304,8.0,12.0,71,0.00,,,0.03,weatherlink.com 1.10,2013-03-16 23:40:00,
2013-03-16 17:55:00,33.7,28.0,29.65,WSW,241,0.0,13.0,81,0.00,,,0.03,weatherlink.com 1.10,2013-03-16 23:55:00,
2013-03-16 18:09:00,33.5,26.0,29.65,SW,236,0.0,5.0,74,0.00,,,0.03,weatherlink.com 1.10,2013-03-17 00:09:00,
2013-03-16 18:24:00,34.5,24.0,29.66,WSW,240,1.0,8.0,65,0.00,,,0.03,weatherlink.com 1.10,2013-03-17 00:24:00,
2013-03-16 18:39:00,35.3,24.0,29.66,SSW,206,0.0,6.0,63,0.00,,,0.03,weatherlink.com 1.10,2013-03-17 00:39:00,
2013-03-16 18:54:00,34.9,25.0,29.67,SW,236,0.0,8.0,68,0.00,,,0.03,weatherlink.com 1.10,2013-03-17 00:54:00,
2013-03-16 19:10:00,34.4,26.0,29.67,South,178,2.0,5.0,70,0.00,,,0.03,weatherlink.com 1.10,2013-03-17 01:10:00,
2013-03-16 19:25:00,33.9,26.0,29.68,SW,233,4.0,5.0,73,0.00,,,0.03,weatherlink.com 1.10,2013-03-17 01:25:00,
2013-03-16 19:40:00,33.3,26.0,29.69,WSW,257,0.0,3.0,74,0.00,,,0.03,weatherlink.com 1.10,2013-03-17 01:40:00,
2013-03-16 19:55:00,32.9,25.0,29.69,North,360,0.0,2.0,72,0.00,,,0.03,weatherlink.com 1.10,2013-03-17 01:55:00,
2013-03-16 20:09:00,32.6,24.0,29.69,North,360,0.0,0.0,72,0.00,,,0.03,weatherlink.com 1.10,2013-03-17 02:09:00,
2013-03-16 20:24:00,32.3,25.0,29.70,North,360,0.0,0.0,73,0.00,,,0.03,weatherlink.com 1.10,2013-03-17 02:24:00,
2013-03-16 20:39:00,32.1,24.0,29.71,WNW,291,0.0,2.0,72,0.00,,,0.03,weatherlink.com 1.10,2013-03-17 02:39:00,
2013-03-16 20:55:00,32.1,23.0,29.71,West,263,0.0,4.0,69,0.00,,,0.03,weatherlink.com 1.10,2013-03-17 02:55:00,
2013-03-16 21:10:00,32.4,23.0,29.72,West,263,0.0,2.0,68,0.00,,,0.03,weatherlink.com 1.10,2013-03-17 03:10:00,
2013-03-16 21:25:00,32.2,23.0,29.71,West,263,0.0,1.0,68,0.00,,,0.03,weatherlink.com 1.10,2013-03-17 03:25:00,
2013-03-16 21:40:00,32.2,23.0,29.71,West,263,0.0,0.0,68,0.00,,,0.03,weatherlink.com 1.10,2013-03-17 03:40:00,
2013-03-16 21:55:00,32.3,22.0,29.71,West,263,0.0,0.0,67,0.00,,,0.03,weatherlink.com 1.10,2013-03-17 03:55:00,
2013-03-16 22:11:00,32.5,22.0,29.72,South,188,2.0,4.0,65,0.00,,,0.03,weatherlink.com 1.10,2013-03-17 04:11:00,
2013-03-16 22:26:00,33.0,22.0,29.72,SW,234,1.0,5.0,63,0.00,,,0.03,weatherlink.com 1.10,2013-03-17 04:26:00,
2013-03-16 22:41:00,33.0,22.0,29.72,South,178,0.0,7.0,64,0.00,,,0.03,weatherlink.com 1.10,2013-03-17 04:41:00,
2013-03-16 22:56:00,32.7,22.0,29.73,South,184,2.0,4.0,65,0.00,,,0.03,weatherlink.com 1.10,2013-03-17 04:56:00,
2013-03-16 23:10:00,32.3,22.0,29.73,SSW,209,0.0,2.0,66,0.00,,,0.03,weatherlink.com 1.10,2013-03-17 05:10:00,
2013-03-16 23:25:00,31.9,22.0,29.73,SSW,202,2.0,2.0,68,0.00,,,0.03,weatherlink.com 1.10,2013-03-17 05:25:00,
2013-03-16 23:40:00,31.5,22.0,29.73,WSW,253,2.0,4.0,68,0.00,,,0.03,weatherlink.com 1.10,2013-03-17 05:40:00,
2013-03-16 23:55:00,31.6,22.0,29.73,SW,228,0.0,3.0,67,0.00,,,0.03,weatherlink.com 1.10,2013-03-17 05:55:00,